Lapse_Rate
6.1 9.8 9.8 8.9 6.5 6.5 6.5 6.5 6.5 6.5 6.5 7.3 7.6 7.0 6.6 7.1 6.5 6.5 9.2 9.6 9.8 9.8 8.4 5.3 5.2 5.6 5.5 6.2 6.1 5.8 5.9 5.8 5.3 5.3 5.7 7.3 8.1 8.1 6.6 6.6 6.7 7.7 7.9 8.1 7.3 6.2 6.0 6.0 5.9
6.4 9.6 9.2 7.8 6.5 6.5 6.5 6.5 6.5 6.5 7.0 7.6 7.6 7.4 6.9 6.5 8.1 8.2 8.4 8.4 9.9 9.8 9.1 7.3 5.1 5.2 5.5 5.7 6.0 6.2 6.0 5.6 5.1 5.3 5.6 6.2 6.5 6.3 6.4 6.6 7.5 8.0 8.1 7.0 6.1 5.7 5.6 5.6 5.8
8.2 9.1 7.6 6.5 6.5 6.5 6.5 6.5 6.5 6.8 7.5 7.4 7.1 7.8 7.4 7.0 8.3 8.6 9.4 8.7 9.9 9.9 9.6 8.6 5.3 5.1 5.2 5.2 5.8 6.0 6.1 5.6 5.0 5.3 5.3 5.9 6.4 6.3 6.2 6.1 7.2 6.3 6.2 6.3 6.1 5.8 5.7 5.8 6.0
9.2 8.7 8.0 6.5 6.5 6.5 6.5 6.5 6.7 6.6 7.3 7.7 7.5 6.5 8.0 8.7 8.6 9.2 9.1 9.9 9.9 9.9 9.7 5.2 4.8 5.0 5.0 5.1 5.7 6.0 5.9 5.8 5.1 5.3 5.4 6.2 6.0 5.7 5.5 5.5 5.6 5.9 6.2 6.3 6.2 6.1 6.1 6.0 6.0
9.1 8.0 6.5 6.5 6.5 6.5 6.5 6.9 7.1 6.5 6.9 7.2 7.5 6.7 7.2 8.6 9.3 8.8 9.5 9.8 9.7 9.9 9.6 6.5 4.8 5.2 5.3 5.2 5.7 5.9 6.0 6.0 5.1 5.1 5.3 5.6 5.5 5.3 5.3 5.3 5.6 5.8 5.8 5.9 6.1 6.0 6.1 6.1 6.1
7.5 7.5 6.5 6.5 6.5 6.5 6.5 7.2 7.1 6.8 7.1 7.2 7.1 7.1 7.4 9.0 9.0 9.0 9.7 9.8 10.0 9.9 9.6 8.6 5.1 5.4 5.7 5.6 5.5 5.9 5.9 5.8 5.0 4.9 5.2 5.7 5.2 5.3 5.2 5.3 5.4 5.5 5.8 6.2 6.1 6.1 6.0 5.9 5.8
6.9 6.5 6.5 6.5 6.5 6.5 6.5 7.3 6.8 6.8 6.9 6.9 7.8 6.5 7.7 8.5 9.1 9.5 9.7 9.8 9.9 9.9 9.5 8.1 7.0 5.7 5.4 5.8 5.5 5.7 5.9 5.8 4.9 4.8 4.7 4.7 4.8 5.1 5.0 5.1 5.4 5.6 5.8 5.9 5.8 5.7 5.7 5.5 5.2
7.7 6.5 6.5 6.5 6.5 6.5 6.7 7.0 7.4 7.1 6.8 7.8 8.2 6.6 6.8 8.5 8.0 9.6 9.7 9.6 9.6 9.8 9.8 8.1 7.4 6.8 6.8 6.0 5.9 5.5 5.5 5.4 4.5 4.2 4.3 4.3 4.5 4.4 4.3 4.8 5.1 5.2 5.5 5.6 5.5 5.2 5.2 5.3 4.9
8.3 6.5 6.5 6.5 6.5 6.5 7.1 6.6 7.5 7.5 7.3 7.6 7.9 7.9 8.0 8.8 5.7 9.1 9.2 9.3 7.1 9.5 9.7 9.3 7.5 7.4 6.8 5.3 4.4 4.5 4.8 4.4 3.8 3.8 3.9 4.5 6.7 6.1 5.4 4.6 4.8 4.9 5.1 5.5 5.3 5.3 5.7 5.6 5.4
6.9 6.5 6.5 6.5 6.5 6.5 6.9 6.9 7.1 7.0 7.0 7.2 7.6 8.2 7.7 7.2 6.0 8.6 8.7 8.8 7.2 8.8 9.5 9.7 9.0 6.7 6.3 6.3 5.0 6.2 5.7 5.4 5.7 5.5 5.1 7.5 8.5 8.3 8.9 5.8 4.9 5.1 5.2 5.3 5.4 5.9 6.0 7.6 8.9
6.9 6.5 6.5 6.7 7.1 7.2 6.9 6.9 7.5 6.8 6.5 7.1 7.1 7.7 8.2 8.0 7.3 8.5 8.7 8.9 8.8 8.5 9.5 9.7 9.7 9.3 8.3 8.9 7.3 7.8 6.7 7.3 8.0 6.8 6.8 8.4 8.5 6.7 7.1 7.4 6.8 7.0 6.0 7.4 7.4 8.2 7.5 6.6 6.6
6.5 6.8 6.9 7.0 7.3 7.1 6.5 7.4 6.9 7.1 7.1 7.4 7.9 8.2 8.2 7.9 6.4 8.3 8.6 8.8 8.9 8.8 9.0 9.6 9.8 9.8 9.5 8.7 8.8 9.4 9.4 9.2 8.8 8.2 7.8 7.7 8.6 8.5 9.5 9.3 8.6 8.7 8.5 8.7 8.7 8.0 6.8 6.6 6.1
6.5 6.5 7.1 7.3 7.4 7.3 7.4 6.9 6.8 7.0 7.8 8.1 8.1 8.1 8.0 7.9 7.3 8.6 8.9 9.1 9.1 8.9 7.4 9.1 9.6 9.7 9.7 9.3 9.2 9.6 9.5 8.8 9.5 9.2 8.2 9.4 9.5 9.4 9.5 9.0 8.6 8.4 7.5 7.7 8.2 7.5 6.8 6.4 5.9
7.1 6.9 6.9 7.1 7.0 7.2 6.7 6.8 7.2 7.4 8.0 7.8 7.8 7.8 8.1 8.2 7.6 8.4 8.7 8.8 8.9 9.0 7.7 7.9 9.1 9.7 9.7 9.2 9.7 9.6 9.6 9.3 9.5 9.4 9.4 9.5 9.5 9.4 9.0 8.8 8.2 7.4 6.9 6.3 7.3 7.1 6.8 6.7 6.0
7.2 6.5 6.5 6.7 6.9 6.6 7.1 6.5 6.5 7.6 7.9 7.6 7.6 7.8 8.0 8.1 8.5 8.4 8.5 8.7 9.0 9.3 7.7 7.3 8.5 9.6 9.7 9.4 9.2 9.5 9.6 9.6 9.2 9.0 9.5 9.4 9.5 8.5 8.2 7.6 7.1 5.6 5.4 7.0 6.8 6.5 6.8 6.9 6.4
6.5 6.5 6.5 6.5 6.6 6.9 6.8 6.5 6.5 7.7 7.6 7.3 7.6 7.7 7.8 8.1 8.3 8.6 8.7 8.8 9.2 9.2 8.0 7.0 8.1 8.7 9.5 9.5 8.9 9.7 9.5 8.5 8.7 8.6 8.6 8.3 6.6 6.7 6.1 5.7 5.1 4.7 6.2 6.3 6.4 6.6 6.5 7.2 7.4
6.5 6.5 6.5 6.5 6.6 6.5 6.5 6.5 6.5 7.5 7.3 7.2 7.5 7.7 7.7 8.0 8.3 8.6 8.8 8.8 9.1 9.3 9.0 6.9 7.0 8.0 9.2 9.3 9.5 9.5 8.1 7.1 7.0 7.5 7.9 7.3 7.0 6.4 5.4 5.3 4.6 5.3 5.7 6.1 6.4 5.4 6.6 5.7 4.3
6.5 6.5 6.5 6.5 6.5 6.5 6.5 6.5 6.5 7.2 7.1 7.1 7.4 7.6 7.8 7.7 8.1 8.5 8.7 8.5 9.0 9.3 9.3 7.2 7.1 7.7 8.8 9.3 9.2 7.1 6.5 6.2 4.9 4.5 5.9 6.5 5.8 5.2 4.3 4.3 4.4 5.0 5.2 5.0 4.5 3.8 2.5 2.2 2.9
6.5 6.5 6.5 6.5 6.5 6.5 6.5 6.5 6.5 6.8 7.0 6.9 7.2 7.4 7.7 7.6 8.2 8.4 8.3 8.4 8.7 9.1 9.1 7.3 7.0 7.7 8.0 8.6 7.7 5.8 5.2 4.6 3.5 2.4 3.0 3.7 4.2 3.8 4.1 3.9 4.0 4.2 4.0 4.1 3.9 2.5 2.1 1.5 2.4
6.5 6.5 6.5 6.5 6.5 6.5 6.5 6.5 6.5 6.5 6.7 7.0 7.2 7.2 7.5 7.7 8.0 7.9 7.9 7.4 7.6 8.2 8.0 7.3 7.3 7.9 7.4 8.5 6.9 4.8 4.5 3.9 3.1 1.4 1.1 1.2 1.5 2.0 2.2 2.4 2.3 2.2 1.7 1.1 1.3 2.4 2.2 1.7 2.7
6.5 6.5 6.5 6.5 6.5 6.5 6.5 6.5 6.5 6.5 6.9 7.2 7.3 7.6 7.7 7.4 7.7 8.0 7.9 7.4 7.3 7.8 7.6 8.0 7.8 7.8 7.2 8.0 6.8 4.4 2.5 1.9 1.4 1.1 0.6 0.3 0.0 0.1 0.1 0.1 0.3 0.3 0.6 0.5 1.0 1.8 3.0 2.5 4.4
6.5 6.5 6.5 6.5 6.5 6.5 6.5 6.5 6.5 6.5 6.5 6.5 7.0 7.4 7.7 7.7 7.4 7.7 8.1 8.0 8.1 8.2 8.3 8.9 8.3 7.9 7.7 7.6 4.0 2.5 3.7 3.2 2.9 1.1 -0.1 -0.6 -1.0 -0.9 -0.3 0.0 -0.1 0.0 0.5 0.9 1.6 1.9 3.1 5.3 4.5
6.5 6.5 6.5 6.5 6.5 6.5 6.5 6.5 6.5 6.5 6.5 6.5 6.5 7.2 7.7 8.0 8.0 6.7 7.6 8.4 8.7 8.1 8.1 8.5 8.2 7.9 7.7 5.5 4.4 4.0 4.9 2.7 0.8 -0.9 -1.9 -2.3 -2.5 -1.6 -1.0 -0.9 -0.7 0.1 0.6 1.7 2.0 1.7 2.0 2.3 2.8
6.5 6.5 6.5 6.5 6.5 6.5 6.5 6.5 6.5 6.5 6.5 6.5 6.5 7.3 7.4 7.8 7.9 7.4 6.9 8.7 8.5 8.1 8.0 8.3 7.9 7.6 6.1 4.4 3.8 3.8 0.9 -0.4 -1.4 -2.2 -2.7 -2.7 -2.0 -1.2 -1.4 -1.2 -0.8 0.3 0.7 1.8 1.7 1.6 1.5 1.7 2.3
6.5 6.5 6.5 6.5 6.5 6.5 6.5 6.5 6.5 6.5 6.5 6.5 6.5 6.9 7.6 7.8 7.8 7.4 7.2 7.7 7.5 7.3 7.1 7.4 6.8 4.8 4.2 3.1 2.6 2.1 0.1 -1.0 -1.6 -2.2 -2.7 -1.3 -0.4 -1.2 -1.3 -0.4 -0.0 1.0 1.7 1.7 1.6 1.2 0.9 1.2 1.6
6.5 6.5 6.5 6.5 6.5 6.5 6.5 6.5 6.5 6.5 6.5 7.0 7.1 7.2 7.3 7.5 7.7 7.1 7.0 7.6 6.2 5.4 4.1 3.8 3.4 1.3 1.5 0.6 -0.8 -1.4 -1.8 -2.0 -2.2 -1.9 -0.5 0.0 -1.0 -1.5 -1.1 -0.9 0.5 2.0 1.6 0.8 0.8 0.9 1.0 1.3 1.5
6.5 6.5 6.5 6.5 6.5 6.5 6.5 6.5 6.5 6.5 6.5 6.5 6.8 7.1 7.2 7.5 7.5 6.4 6.3 5.7 4.8 3.2 2.8 2.3 0.7 -1.1 -1.4 -1.9 -2.1 -2.2 -1.6 -1.4 -1.7 -0.1 -0.2 -1.1 -1.6 -0.4 0.1 0.6 1.4 1.4 1.1 1.2 1.3 0.9 0.8 1.4 1.7
6.5 6.5 6.5 6.5 6.5 6.5 6.5 6.5 6.5 6.5 6.5 6.5 6.5 6.7 7.2 7.6 7.3 5.5 5.6 4.4 3.2 1.5 -0.0 -0.7 -1.2 -2.0 -1.7 -1.9 -2.1 -2.1 -1.7 -0.4 -0.6 -1.1 -1.4 -1.3 -0.5 -0.6 0.6 1.8 1.5 1.2 1.2 1.3 1.2 1.0 1.4 1.7 1.9
6.5 6.5 6.5 6.5 6.5 6.5 6.5 6.5 6.5 6.5 6.5 6.5 6.5 7.1 7.2 7.5 6.0 5.8 5.0 3.7 2.7 -0.0 -1.5 -1.3 -2.0 -2.1 -2.4 -2.5 -2.2 -1.2 -0.8 -0.7 -0.6 -0.9 -0.9 -0.4 0.2 1.3 1.3 1.3 1.4 1.3 1.3 1.2 1.3 1.5 1.8 2.3 2.7
6.5 6.5 6.5 6.5 6.5 6.5 6.5 6.5 6.5 6.5 6.5 6.5 6.6 6.9 5.9 5.8 3.8 2.3 1.5 1.2 2.1 0.0 -1.4 -1.4 -2.4 -3.0 -2.9 -0.8 -0.2 -1.1 -0.7 -0.7 -1.2 -1.1 0.1 0.6 2.1 1.5 1.0 1.3 1.4 1.0 1.1 1.5 1.7 2.5 2.9 3.1 3.2
Wind_Speed
19 8 4 4 6 6 13 9 11 3 4 4 8 4 2 6 2 2 10 8 17 17 22 20 18 18 16 19 19 19 15 14 13 13 12 12 11 11 11 10 10 9 9 11 11 11 10 10 10
15 9 4 4 7 11 11 11 7 8 6 5 6 3 4 4 6 10 12 9 17 17 21 20 18 18 16 19 19 19 18 14 14 13 12 11 11 10 10 10 8 8 10 10 10 10 9 9 8
13 7 4 5 11 13 10 3 10 6 4 6 4 6 2 4 5 13 9 16 17 15 19 19 19 18 18 17 20 18 19 16 15 14 13 11 11 10 9 9 8 10 10 10 11 11 10 9 8
5 5 4 8 15 13 18 2 11 5 5 5 6 5 3 6 7 8 16 19 16 15 18 19 15 15 17 17 20 19 19 17 15 14 14 11 11 10 9 8 9 9 10 10 10 9 8 7 7
7 4 10 13 19 18 6 13 8 10 10 8 7 6 2 4 5 13 17 16 16 14 16 15 12 14 18 19 19 19 19 17 15 14 13 12 10 10 9 9 8 8 8 8 7 7 7 7 7
7 5 10 14 17 17 12 13 9 10 12 5 6 8 4 7 11 14 16 16 14 14 15 14 12 16 19 20 18 20 19 17 16 15 14 12 11 10 9 8 8 7 7 7 7 6 6 7 6
12 10 15 18 17 16 9 5 11 11 14 11 5 9 5 10 12 15 15 14 12 15 13 11 13 14 20 20 20 20 19 17 13 14 14 13 11 9 9 7 7 6 6 6 6 6 6 6 7
8 11 19 17 16 20 15 5 6 10 14 3 1 6 6 14 15 15 15 14 12 13 13 12 14 17 18 17 20 19 17 15 13 12 12 11 10 9 8 8 6 5 5 5 6 6 6 6 7
8 10 16 21 18 16 10 10 9 2 8 3 6 4 5 18 17 16 16 15 10 12 13 15 13 14 18 16 15 16 15 14 13 12 12 11 10 10 10 6 5 4 4 5 6 6 5 1 4
11 13 23 19 17 18 16 13 12 6 11 14 10 5 3 17 18 19 19 17 15 14 15 13 14 14 16 15 15 14 14 13 13 13 12 11 10 10 8 7 5 4 4 6 6 3 2 7 6
12 20 18 17 17 14 18 14 13 11 14 12 16 13 13 17 17 18 19 18 18 14 14 15 13 14 15 13 14 12 12 12 11 12 13 10 10 8 9 10 9 8 8 8 5 6 9 9 9
21 18 16 20 20 14 20 17 18 14 15 5 5 8 17 19 20 21 20 19 18 19 13 16 15 12 14 13 12 12 11 11 11 11 12 10 8 9 8 6 6 5 5 4 5 6 7 8 8
20 17 19 18 20 20 19 22 19 19 13 11 7 8 18 18 20 19 18 16 17 17 13 15 15 13 13 11 12 12 11 11 12 12 11 11 9 7 7 5 7 6 4 5 3 5 5 6 8
13 15 16 14 18 21 22 24 23 24 20 18 11 12 16 20 22 18 19 19 18 17 16 14 14 13 14 10 11 9 12 14 13 12 12 10 9 6 4 6 5 4 5 3 5 5 4 5 8
15 19 20 20 16 21 18 26 29 22 22 21 14 14 16 19 20 23 20 19 19 17 15 14 14 14 12 11 10 11 12 10 9 8 12 11 7 7 6 6 4 4 4 2 4 5 4 6 9
17 18 18 15 24 21 16 34 22 22 25 24 23 16 15 19 20 20 18 18 18 18 16 14 13 15 14 11 10 10 10 9 7 9 9 7 8 9 8 5 5 4 3 4 4 3 3 4 5
11 13 17 17 19 17 26 33 21 19 18 26 24 21 17 16 19 20 19 17 17 19 19 16 15 14 15 13 11 10 8 7 7 6 8 8 8 8 8 6 6 5 5 4 4 4 3 6 6
11 13 16 17 16 19 20 27 24 24 21 24 23 21 21 18 20 18 19 16 17 18 17 15 14 14 15 11 9 7 6 8 8 6 5 9 8 8 9 8 7 6 5 4 5 6 7 5 6
16 18 22 19 19 20 21 23 19 20 18 16 22 23 23 19 18 18 16 17 15 18 17 17 17 15 11 10 10 9 7 6 5 7 7 7 7 8 9 8 8 8 5 5 6 6 6 4 3
15 18 20 19 18 21 24 28 25 24 26 19 18 23 22 18 18 17 19 17 17 18 17 19 18 16 13 10 9 7 9 5 7 8 9 9 9 9 10 9 7 9 5 6 5 2 2 2 1
15 16 18 21 18 22 22 32 29 27 28 25 22 22 21 18 19 19 19 20 20 20 20 20 20 17 15 15 10 8 8 6 5 6 6 9 12 13 12 12 10 9 7 5 4 3 3 3 2
16 15 15 17 15 12 11 12 16 16 26 29 25 23 23 21 16 17 19 19 20 19 19 18 20 18 16 15 13 16 9 9 5 8 7 9 14 13 13 13 12 10 9 6 5 5 4 2 4
13 12 14 16 16 17 19 13 7 18 26 24 26 24 25 24 22 17 19 21 21 18 18 18 19 18 15 14 13 11 10 7 9 9 11 10 12 13 14 14 14 13 10 9 8 7 8 6 6
13 14 16 16 13 14 16 16 17 17 21 17 17 25 21 24 25 20 20 20 19 17 17 17 20 17 16 14 13 13 14 14 11 11 9 7 7 8 13 15 14 13 12 10 8 10 9 8 7
9 10 5 4 6 10 12 14 24 13 20 23 24 22 23 22 23 22 21 19 17 18 17 17 18 13 12 11 10 11 13 14 14 12 9 10 6 7 7 11 11 10 11 12 10 10 8 8 7
17 5 4 8 8 12 18 8 13 11 9 12 13 19 16 21 20 20 21 21 19 18 15 13 15 14 12 12 12 11 13 9 10 12 9 8 7 8 10 13 11 13 11 11 12 10 9 10 7
0 5 2 7 18 12 8 15 22 19 7 9 13 15 18 17 19 17 20 19 18 15 15 13 12 13 13 13 12 12 12 14 12 14 11 8 10 10 12 12 12 12 11 12 11 6 7 8 6
7 5 5 3 5 8 8 14 12 10 15 18 17 16 16 20 18 17 15 16 14 14 14 14 14 13 13 14 13 12 13 14 14 13 13 10 8 13 12 11 10 11 11 11 11 6 8 7 5
4 2 4 5 5 5 7 6 6 15 17 20 20 20 17 20 12 13 11 10 9 15 17 14 16 17 15 14 14 15 15 15 14 13 11 10 11 12 10 10 8 8 8 9 8 6 6 7 6
4 6 8 5 6 7 9 10 9 13 17 14 17 12 9 2 11 13 13 12 10 12 16 17 17 17 16 15 13 15 13 16 15 12 11 13 10 13 12 11 8 8 8 8 7 7 5 5 6
Wind_Direction
311 329 285 248 240 232 250 232 271 198 212 135 149 201 216 2 332 15 145 139 142 152 152 161 159 164 164 160 151 149 146 143 144 139 137 130 124 110 105 102 98 102 102 87 82 81 76 71 65
309 313 234 265 245 234 233 240 202 230 64 152 150 182 208 98 82 125 135 184 154 155 154 163 165 166 163 158 155 154 147 146 147 144 139 133 126 116 114 102 100 91 86 82 79 76 74 71 67
280 277 256 228 235 244 250 160 249 83 133 177 191 301 19 82 105 147 122 167 154 155 161 152 165 167 165 160 161 160 149 148 149 147 142 140 134 119 110 107 99 90 88 86 82 78 76 71 65
300 206 230 241 244 239 272 1 309 144 179 241 249 211 101 21 144 147 151 150 156 159 159 144 166 177 171 167 166 161 150 148 153 152 144 147 127 121 116 108 97 94 90 84 78 73 69 66 59
243 248 256 231 244 253 248 276 280 253 232 214 222 243 115 131 117 132 157 156 157 160 154 156 183 190 183 171 167 160 148 151 155 155 148 140 134 130 123 113 106 100 94 89 82 75 65 55 48
250 264 237 246 240 241 241 271 268 255 252 223 229 254 110 129 151 161 156 162 159 157 153 153 176 200 184 168 164 154 148 152 157 154 153 152 134 136 129 124 115 105 95 85 73 59 48 41 39
244 235 246 247 250 251 252 266 258 257 249 225 259 237 100 167 146 164 163 153 173 156 146 157 162 156 163 161 156 150 149 152 147 147 138 135 137 136 127 119 114 105 94 82 64 49 45 54 50
260 248 254 251 249 243 240 216 240 262 259 70 195 250 216 167 150 166 164 156 189 163 161 149 158 158 155 151 149 143 144 141 140 134 130 129 127 131 131 135 118 107 91 72 66 66 61 68 67
247 240 239 240 240 254 243 236 207 317 256 209 192 292 22 140 160 174 173 165 178 175 177 157 165 158 150 138 142 134 132 135 137 137 141 152 158 164 163 108 119 105 89 90 80 61 37 297 110
221 231 242 243 246 253 255 226 238 215 220 226 218 187 160 145 171 179 183 179 173 196 178 176 167 156 151 149 154 155 150 163 172 167 166 183 163 160 152 144 153 146 142 130 120 98 269 352 19
240 247 256 256 261 246 264 240 243 233 242 228 234 201 167 165 183 195 191 190 177 193 182 178 181 176 164 158 171 163 168 174 173 174 179 174 170 161 180 160 173 171 187 176 174 37 33 31 29
251 253 265 265 271 253 257 258 255 246 255 354 256 261 174 179 191 200 196 194 177 184 207 183 180 177 177 168 180 173 175 177 177 177 183 172 183 183 183 182 157 135 55 52 41 53 43 47 54
261 257 269 265 260 263 257 256 259 250 250 257 229 273 188 190 200 199 201 198 185 187 183 196 186 181 177 183 187 177 178 181 181 173 184 186 190 186 193 135 86 82 78 46 36 64 56 68 64
296 297 281 285 272 263 258 259 255 253 257 261 247 234 210 206 201 199 202 196 197 192 178 196 193 185 179 186 184 178 181 184 177 177 180 198 192 187 151 130 100 89 74 66 55 57 76 79 84
285 285 276 257 255 260 271 260 249 253 254 251 241 227 224 214 202 208 205 199 195 193 186 185 193 187 181 187 180 182 181 165 185 179 177 187 193 138 114 103 119 82 86 100 108 85 90 103 92
279 271 265 251 244 242 233 261 252 239 243 243 245 226 227 216 208 209 205 207 200 194 180 184 194 188 182 186 180 181 175 179 177 172 173 154 141 139 119 99 108 110 106 96 90 100 109 108 110
241 262 266 275 239 250 230 256 254 258 257 241 242 242 221 222 215 205 202 203 203 196 182 183 193 187 183 181 176 170 136 111 118 133 139 150 127 129 117 121 113 122 111 98 92 75 95 100 88
303 286 275 268 265 272 262 268 256 245 247 253 242 242 236 214 215 204 205 194 200 197 186 185 190 194 181 169 156 114 129 133 137 124 126 144 131 127 118 118 111 112 106 94 80 89 56 52 93
289 285 281 278 289 304 288 284 280 284 287 288 257 236 244 216 216 196 195 193 195 196 185 190 186 192 176 174 154 154 156 149 124 96 90 92 114 112 114 111 106 94 84 81 91 91 90 58 80
288 281 278 278 262 267 282 273 260 257 263 259 267 259 246 232 208 186 191 186 194 195 183 189 189 185 178 167 161 166 147 144 123 112 93 93 90 96 95 95 90 86 91 72 58 60 112 88 44
291 279 278 277 279 274 278 276 269 254 260 258 247 256 264 273 207 198 195 190 192 193 192 185 188 177 177 169 158 124 103 111 125 125 104 86 85 82 85 88 89 82 83 83 70 48 100 126 90
291 297 300 278 276 270 272 281 276 261 245 239 239 242 248 251 253 191 193 202 195 197 192 188 179 176 181 161 155 162 165 161 161 137 114 93 78 73 78 81 78 72 66 65 62 37 29 57 112
283 296 289 281 276 278 256 268 289 238 245 247 231 228 237 236 245 184 200 199 198 193 187 184 178 175 179 163 172 172 162 125 124 122 114 103 84 77 79 76 72 68 65 55 54 59 62 57 69
280 284 283 272 261 255 256 240 277 250 258 261 254 241 228 225 222 192 191 201 196 187 184 188 174 176 164 174 176 169 142 140 136 136 123 112 103 86 77 78 72 64 61 64 62 59 62 68 70
244 283 287 245 219 255 251 229 243 274 265 261 253 249 239 225 216 199 187 195 186 183 182 182 169 150 151 158 156 145 141 139 136 135 127 125 114 103 96 90 82 75 82 75 78 72 65 62 71
298 248 264 294 291 311 306 249 245 246 277 302 292 278 282 226 217 194 183 181 177 168 157 151 152 139 146 145 134 128 128 129 124 122 121 113 110 109 101 94 104 97 91 86 78 74 78 74 72
323 242 233 276 257 263 240 266 282 267 261 317 306 298 279 266 219 184 178 175 171 159 154 151 141 130 131 126 118 119 122 121 117 110 103 108 112 111 114 107 100 98 92 87 87 83 80 72 68
223 351 275 227 286 304 278 250 258 358 320 307 303 296 284 271 228 175 177 173 167 149 131 127 118 115 115 115 115 110 106 104 107 104 104 108 115 113 113 101 95 97 96 96 91 83 80 83 72
286 261 239 259 267 290 315 321 355 330 323 302 300 298 292 271 189 155 150 140 153 131 119 116 114 114 107 102 106 105 108 106 103 103 108 115 113 119 106 106 110 104 100 95 94 92 87 88 88
247 279 286 283 285 280 273 277 358 334 323 302 303 310 306 184 121 116 115 118 129 119 119 116 116 109 103 104 102 106 101 112 108 101 111 112 117 104 110 117 114 105 102 100 98 97 98 97 84